Regional Weather Roundup
Issued by NWS

Home | Current Version | Previous Version | Text Only | Print | Product List | Glossary Off
Versions: 1 2 3 4 5 6 7 8 9 10 11 12 13 14 15 16 17 18 19 20 21 22 23 24 25 26 27 28 29 30 31 32 33 34 35 36 37 38 39 40 41 42 43 44 45 46 47 48 49 50

552
ASUS43 KLMK 241410
RWRKY
KENTUCKY REGIONAL WEATHER ROUNDUP
NATIONAL WEATHER SERVICE LOUISVILLE KY
1000 AM EDT WED MAY 24 2017

NOTE "FAIR" INDICATES FEW OR NO CLOUDS BELOW 12,000 FEET
WITH NO SIGNIFICANT WEATHER AND/OR OBSTRUCTIONS TO VISIBILITY.

KYZ001>023-026-027-061>063-070>075-241500-
WESTERN AND SOUTH CENTRAL KENTUCKY

CITY           SKY/WX    TMP DP  RH WIND       PRES   REMARKS
PADUCAH        LGT RAIN  59  55  87 NW5       29.53S
HENDERSON      LGT RAIN  59  57  94 N7        29.52S
OWENSBORO      RAIN      59  58  96 N6        29.51F FOG
HOPKINSVILLE   RAIN      59  59 100 N7        29.48F FOG
BOWLING GREEN  LGT RAIN  61  60  97 N8        29.49F
GLASGOW        LGT RAIN  60  60 100 N3        29.49F
$$

KYZ024-025-028>034-038-045-046-053-241500-
NORTH CENTRAL KENTUCKY

CITY           SKY/WX    TMP DP  RH WIND       PRES   REMARKS
LOUISVILLE/SDF LGT RAIN  62  58  86 NW5       29.50F
LOUISVILLE/LOU LGT RAIN  63  59  87 W5        29.51S
FORT KNOX      CLOUDY    59  57  92 N5        29.49F
$$

KYZ035>037-039>044-047>052-055>060-089>105-241500-
NORTHEAST KENTUCKY

CITY           SKY/WX    TMP DP  RH WIND       PRES   REMARKS
LEXINGTON      CLOUDY    64  59  83 SE5       29.52F
COVINGTON      CLOUDY    63  60  90 SE12      29.52S
FRANKFORT      LGT RAIN  63  58  83 CALM      29.50F
$$

KYZ054-064>069-076>088-106>120-241500-
SOUTHEAST KENTUCKY

CITY           SKY/WX    TMP DP  RH WIND       PRES   REMARKS
JACKSON        CLOUDY    61  59  93 CALM      29.55F
LONDON         LGT RAIN  60  58  92 CALM      29.53F
SOMERSET       RAIN      59  59 100 E3        29.55R
MIDDLESBORO    CLOUDY    63  62  96 CALM      29.53F
MONTICELLO     RAIN      61  61 100 VRB3      29.53F FOG
$$





USA.gov is the U.S. government's official web portal to all federal, state and local government web resources and services.